Погода в Гунях

Россия / Чеченская Республика     43°03′02″N   46°06′03″E
темп.,
°C
ветер,
м/с
пор.,
м/с
влажн.,
%
обл.,
%
осадки,
мм/ч
давл.,
гПа
погр.,
м
8 августа, пн
пн800:00+17ю219157 2.0 101228
03:00+16ююз119295 3.8 101221
06:00+17зюз1191100 1.3 101328
09:00+18з1289100 2.3 1015106
12:00+18зюз128599 1.1 1015181
15:00+22ссв016056 1.4 1015880
18:00+20ссз117312 0.4 101569
21:00+16ю218513 0.6 101716
9 августа, вт
вт900:00+15ю32850 0.0 101628
03:00+15ю22830 0.0 101628
06:00+16ю22780 0.0 101734
09:00+22ссв22522 0.0 10161120
12:00+26ссв324044 0.0 10141940
15:00+25в2247100 0.0 10141083
18:00+22всв24571 0.0 1015293
21:00+17ю32720 0.0 101533
10 августа, ср
ср1000:00+17ю32690 0.0 101434
03:00+17ююв22700 0.0 101323
06:00+17ю22710 0.0 101336
09:00+24ссв22483 0.0 1012870
12:00+29с23380 0.0 10101588
15:00+30ссв333422 0.0 10082149
18:00+25ссз11541 0.0 100820
21:00+20ю33760 0.3 101037
11 августа, чт
чт1100:00+19ю32710 0.0 100930
03:00+19ю33630 0.0 100935
06:00+19ю22610 0.0 100932
09:00+27ссв22413 0.0 1008650
12:00+30с33362 0.0 10071467
15:00+31сз324036 0.3 10071344
18:00+26ююз23650 0.6 100868
21:00+20ю43870 2.3 101140
12 августа, пт
пт1200:00+20ю33770 0.1 101135
03:00+20ю33660 0.1 101134
06:00+20ю22650 0.0 101222
09:00+27с21470 0.0 1012683
12:00+30ссв33421 0.0 10111536
15:00+32сз22388 0.1 10091285
18:00+26ююз11660 0.8 101027
21:00+21ю32830 1.6 101233